Regional Weather Roundup
Issued by NWS Cleveland, OH

Home | Current Version | Previous Version | Graphics & Text | Print | Product List | Glossary On
Versions: 1 2 3 4 5 6 7 8 9 10 11 12 13 14 15 16 17 18 19 20 21 22 23 24 25 26 27 28 29 30 31 32 33 34 35 36 37 38 39 40 41 42 43 44 45 46 47 48 49 50
000
ASUS41 KCLE 012310
RWRCLE
OHIO REGIONAL WEATHER ROUNDUP
NATIONAL WEATHER SERVICE WILMINGTON, OH
700 PM EDT WED APR 01 2015

NOTE: "FAIR" INDICATES FEW OR NO CLOUDS BELOW 12,000 FEET WITH NO
SIGNIFICANT WEATHER AND/OR OBSTRUCTIONS TO VISIBILITY.

OHZ001>008-015>018-024>027-034-035-043-044-020000-
   NORTHWEST OHIO

CITY           SKY/WX    TMP DP  RH WIND       PRES   REMARKS
DEFIANCE       SUNNY     65  34  31 S9        30.02F
FINDLAY        SUNNY     63  34  33 S10       30.04S
TOLEDO EXPRESS SUNNY     64  31  28 S6        30.02S
TOLEDO EXEC    SUNNY     64  32  30 VRB7      30.03F
LIMA           SUNNY     65  32  29 S9        30.05S
$$

OHZ009>014-019>023-028>033-038-089-020000-
   NORTHEAST OHIO

CITY           SKY/WX    TMP DP  RH WIND       PRES   REMARKS
CLE-HOPKINS    PTCLDY    55  34  45 NE6       30.11S
CLE-LAKEFRONT  CLEAR     43  32  65 NE9       30.09S
CUY CO. ARPT   PTCLDY    55  37  50 NE5       30.10
LORAIN-ELYRIA  CLEAR     59  36  42 SW6       30.07F
ASHTABULA      CLEAR     51  34  52 N5        30.11R
AKRON-CANTON   PTCLDY    58  30  34 W8        30.10S
WOOSTER        CLEAR     58  36  43 W3        30.09S
MANSFIELD      CLEAR     59  32  36 S6        30.08S
YOUNGSTOWN     PTCLDY    56  30  37 N5        30.10S
$$

OHZ042-051>053-060>062-070>072-077>081-020000-
  SOUTHWEST OHIO

CITY           SKY/WX    TMP DP  RH WIND       PRES   REMARKS
CINC-COVINGTON PTSUNNY   63  32  31 S12       30.08R
CINC-LUNKEN    SUNNY     64  30  27 SE8       30.09R
HAMILTON       SUNNY     67  29  24 S7        30.08S
DAYTON         MOSUNNY   64  31  28 S9        30.08S
WRIGHT-PAT AFB SUNNY     64  30  27 S8        30.07S
DAYTON GENERAL SUNNY     63  31  30 S8        30.07S
WILMINGTON     SUNNY     62  29  28 SW9       30.09R
$$

OHZ036-037-039>041-045>050-054>059-063>069-073>076-082>088-020000-
  CENTRAL AND SOUTHEAST OHIO

CITY           SKY/WX    TMP DP  RH WIND       PRES   REMARKS
COLUMBUS       CLEAR     61  33  35 S8        30.09S
OSU AIRPORT    CLEAR     62  32  32 S8        30.08S
BOLTON FIELD   CLEAR     61  34  36 S8        30.09S
RICKENBACK AFB CLEAR     61  32  32 SE7       30.09S
NEWARK         CLEAR     60  33  36 S6        30.09S
MARION         CLEAR     61  30  31 SW8       30.08S
LANCASTER      CLEAR     61  33  35 SW3       30.11S
ZANESVILLE     CLEAR     59  29  31 E3        30.10F
NEW PHILLY     CLEAR     61  31  32 SE3       30.10F
$$


USA.gov is the U.S. government's official web portal to all federal, state and local government web resources and services.